| time (UTC) | temp C | wind direction | speed KPH | gust KPH | rain 1hr cm | rain 24hr cm | rain mn cm | humidity % | barometer mb |
| 20260508090026 | 3 | 285 | 16.1 | 25.7 | 0.00 | 0.66 | 0.00 | 83 | 1002.0 |
| 20260508084524 | 3 | 360 | 14.5 | 24.1 | 0.00 | 0.81 | 0.00 | 82 | 1001.9 |
| 20260508083022 | 3 | 360 | 12.9 | 22.5 | 0.00 | 0.81 | 0.00 | 82 | 1002.1 |
| 20260508081519 | 3 | 288 | 11.3 | 20.9 | 0.00 | 0.81 | 0.00 | 81 | 1002.1 |
| 20260508080019 | 3 | 272 | 4.8 | 19.3 | 0.00 | 0.81 | 0.00 | 80 | 1002.2 |
| 20260508074518 | 3 | 360 | 8.0 | 20.9 | 0.00 | 0.99 | 0.00 | 80 | 1002.1 |
| 20260508073017 | 3 | 263 | 4.8 | 12.9 | 0.00 | 0.99 | 0.00 | 79 | 1002.2 |
| 20260508071513 | 3 | 290 | 6.4 | 12.9 | 0.00 | 0.99 | 0.00 | 78 | 1002.2 |
| 20260508070012 | 3 | 360 | 4.8 | 20.9 | 0.00 | 0.99 | 0.00 | 76 | 1002.3 |
| 20260508064517 | 3 | 360 | 9.7 | 16.1 | 0.00 | 1.17 | 0.00 | 76 | 1002.2 |
| 20260508063011 | 3 | 286 | 6.4 | 19.3 | 0.00 | 1.17 | 0.00 | 75 | 1002.3 |
| 20260508061509 | 4 | 360 | 9.7 | 29.0 | 0.00 | 1.17 | 0.00 | 74 | 1002.2 |
| 20260508060008 | 4 | 264 | 12.9 | 22.5 | 0.00 | 1.17 | 0.00 | 74 | 1002.2 |
| 20260508054510 | 4 | 360 | 17.7 | 27.4 | 0.00 | 1.40 | 0.00 | 73 | 1002.3 |
| 20260508053004 | 4 | 291 | 16.1 | 30.6 | 0.00 | 1.40 | 0.00 | 74 | 1002.6 |
| 20260508051606 | 4 | 274 | 11.3 | 20.9 | 0.00 | 1.40 | 0.00 | 74 | 1002.7 |
| 20260508050059 | 4 | 360 | 11.3 | 17.7 | 0.00 | 1.40 | 0.00 | 73 | 1002.8 |
| 20260508044555 | 5 | 360 | 12.9 | 20.9 | 0.00 | 1.60 | 0.00 | 71 | 1002.9 |
| 20260508043058 | 5 | 281 | 9.7 | 17.7 | 0.00 | 1.60 | 0.00 | 69 | 1003.0 |
| 20260508041551 | 5 | 255 | 4.8 | 14.5 | 0.00 | 1.60 | 0.00 | 68 | 1003.0 |
| 20260508040048 | 5 | 360 | 0.0 | 12.9 | 0.00 | 1.60 | 0.00 | 65 | 1003.0 |
| 20260508034550 | 6 | 264 | 6.4 | 19.3 | 0.00 | 1.83 | 1.60 | 63 | 1003.0 |
| 20260508033047 | 6 | 290 | 9.7 | 19.3 | 0.00 | 1.83 | 1.60 | 63 | 1003.0 |
| 20260508031544 | 6 | 284 | 6.4 | 14.5 | 0.00 | 1.83 | 1.60 | 62 | 1003.0 |
| 20260508030046 | 6 | 277 | 6.4 | 12.9 | 0.00 | 1.83 | 1.60 | 61 | 1003.0 |
| 20260508024554 | 6 | 241 | 3.2 | 12.9 | 0.00 | 2.01 | 1.60 | 63 | 1003.1 |
| 20260508023042 | 6 | 269 | 1.6 | 9.7 | 0.00 | 2.01 | 1.60 | 63 | 1003.2 |
| 20260508021545 | 6 | 269 | 0.0 | 11.3 | 0.00 | 2.01 | 1.60 | 62 | 1003.3 |
| 20260508020042 | 7 | 290 | 6.4 | 19.3 | 0.00 | 2.01 | 1.60 | 61 | 1003.3 |
| 20260508014541 | 7 | 248 | 8.0 | 19.3 | 0.00 | 2.24 | 1.60 | 60 | 1003.3 |
| 20260508013041 | 7 | 360 | 8.0 | 14.5 | 0.00 | 2.24 | 1.60 | 60 | 1003.3 |
| 20260508011514 | 7 | 258 | 0.0 | 8.0 | 0.00 | 2.24 | 1.60 | 64 | 1003.2 |
| 20260508010015 | 7 | 257 | 0.0 | 9.7 | 0.00 | 2.24 | 1.60 | 63 | 1003.0 |
| 20260508004513 | 7 | 258 | 0.0 | 8.0 | 0.00 | 2.46 | 1.60 | 63 | 1003.0 |
| 20260508003014 | 7 | 360 | 1.6 | 16.1 | 0.00 | 2.46 | 1.60 | 65 | 1002.8 |
| 20260508001512 | 7 | 279 | 3.2 | 11.3 | 0.00 | 2.46 | 1.60 | 66 | 1002.5 |
| 20260508000014 | 8 | 360 | 4.8 | 20.9 | 0.00 | 2.46 | 1.60 | 67 | 1002.5 |
| 20260507234513 | 8 | 360 | 12.9 | 20.9 | 0.00 | 2.69 | 1.60 | 65 | 1002.4 |
| 20260507233011 | 8 | 360 | 14.5 | 27.4 | 0.00 | 2.69 | 1.60 | 63 | 1002.2 |
| 20260507231510 | 9 | 360 | 4.8 | 20.9 | 0.00 | 2.69 | 1.60 | 61 | 1002.0 |
| 20260507230013 | 9 | 261 | 9.7 | 16.1 | 0.00 | 2.69 | 1.60 | 61 | 1001.9 |
| 20260507224513 | 9 | 360 | 16.1 | 24.1 | 0.00 | 2.92 | 1.60 | 63 | 1001.8 |
| 20260507223014 | 9 | 360 | 8.0 | 16.1 | 0.00 | 2.92 | 1.60 | 68 | 1001.8 |
| 20260507221508 | 8 | 360 | 14.5 | 24.1 | 0.00 | 2.92 | 1.60 | 68 | 1001.9 |
| 20260507220007 | 8 | 360 | 11.3 | 24.1 | 0.00 | 2.92 | 1.60 | 67 | 1001.8 |
| 20260507214519 | 9 | 290 | 19.3 | 29.0 | 0.00 | 3.17 | 1.60 | 67 | 1001.6 |
| 20260507213006 | 9 | 360 | 22.5 | 38.6 | 0.00 | 3.17 | 1.60 | 64 | 1001.4 |
| 20260507211507 | 10 | 360 | 22.5 | 33.8 | 0.00 | 3.17 | 1.60 | 61 | 1001.2 |
| 20260507210005 | 11 | 360 | 14.5 | 22.5 | 0.00 | 3.17 | 1.60 | 53 | 1000.8 |
| 20260507204505 | 11 | 360 | 11.3 | 24.1 | 0.00 | 3.35 | 1.60 | 56 | 1000.7 |
| 20260507203004 | 12 | 320 | 14.5 | 25.7 | 0.00 | 3.35 | 1.60 | 55 | 1000.6 |
| 20260507201503 | 12 | 360 | 11.3 | 17.7 | 0.00 | 3.35 | 1.60 | 59 | 1000.4 |
| 20260507200003 | 12 | 360 | 14.5 | 27.4 | 0.00 | 3.35 | 1.60 | 54 | 1000.4 |
| 20260507194503 | 12 | 360 | 8.0 | 14.5 | 0.00 | 3.51 | 1.60 | 52 | 1000.4 |
| 20260507193002 | 12 | 252 | 0.0 | 1.6 | 0.00 | 3.51 | 1.60 | 49 | 1000.3 |
| 20260507191501 | 13 | 217 | 9.7 | 14.5 | 0.00 | 3.51 | 1.60 | 46 | 1000.3 |
| 20260507184604 | 12 | 267 | 4.8 | 14.5 | 0.00 | 3.56 | 1.60 | 45 | 1000.3 |
| 20260507183058 | 12 | 360 | 8.0 | 19.3 | 0.00 | 3.56 | 1.60 | 44 | 1000.5 |
| 20260507181557 | 12 | 28 | 0.0 | 14.5 | 0.00 | 3.56 | 1.60 | 50 | 1000.6 |
| 20260507180057 | 13 | 331 | 11.3 | 17.7 | 0.00 | 3.56 | 1.60 | 50 | 1000.6 |
| 20260507174605 | 12 | 233 | 3.2 | 22.5 | 0.00 | 3.66 | 1.60 | 52 | 1000.8 |
| 20260507173102 | 12 | 360 | 12.9 | 22.5 | 0.00 | 3.66 | 1.60 | 52 | 1001.0 |
| 20260507171603 | 12 | 320 | 0.0 | 24.1 | 0.00 | 3.66 | 1.60 | 57 | 1001.1 |
| 20260507170051 | 12 | 360 | 1.6 | 20.9 | 0.03 | 3.66 | 1.60 | 52 | 1001.3 |
| 20260507164548 | 12 | 338 | 12.9 | 27.4 | 0.03 | 3.68 | 1.60 | 55 | 1001.4 |
| 20260507163047 | 12 | 290 | 11.3 | 19.3 | 0.03 | 3.68 | 1.60 | 59 | 1001.6 |
| 20260507161545 | 11 | 290 | 9.7 | 20.9 | 0.03 | 3.68 | 1.60 | 59 | 1001.6 |
| 20260507160047 | 11 | 327 | 17.7 | 24.1 | 0.00 | 3.66 | 1.57 | 63 | 1001.7 |
| 20260507154543 | 11 | 360 | 11.3 | 19.3 | 0.00 | 3.66 | 1.57 | 65 | 1002.0 |
| 20260507153041 | 11 | 360 | 9.7 | 19.3 | 0.00 | 3.66 | 1.57 | 70 | 1002.1 |
| 20260507151538 | 10 | 336 | 14.5 | 20.9 | 0.03 | 3.66 | 1.57 | 70 | 1002.3 |
| 20260507150036 | 10 | 360 | 11.3 | 17.7 | 0.05 | 3.66 | 1.57 | 70 | 1002.2 |
| 20260507144547 | 9 | 360 | 4.8 | 17.7 | 0.08 | 3.66 | 1.57 | 76 | 1002.2 |
| 20260507143033 | 8 | 355 | 8.0 | 19.3 | 0.08 | 3.66 | 1.57 | 76 | 1002.3 |
| 20260507141531 | 8 | 360 | 12.9 | 20.9 | 0.08 | 3.63 | 1.55 | 80 | 1002.4 |
| 20260507140027 | 8 | 325 | 9.7 | 20.9 | 0.08 | 3.61 | 1.52 | 82 | 1002.7 |
| 20260507134529 | 7 | 360 | 11.3 | 17.7 | 0.08 | 3.58 | 1.50 | 83 | 1002.7 |
| 20260507133027 | 7 | 325 | 11.3 | 17.7 | 0.10 | 3.58 | 1.50 | 83 | 1002.8 |
| 20260507131525 | 7 | 326 | 11.3 | 16.1 | 0.13 | 3.56 | 1.45 | 84 | 1003.0 |
| 20260507130025 | 6 | 360 | 8.0 | 17.7 | 0.13 | 3.53 | 1.42 | 86 | 1003.0 |
| 20260507124524 | 6 | 360 | 12.9 | 17.7 | 0.13 | 3.51 | 1.42 | 86 | 1002.9 |
| 20260507123023 | 6 | 360 | 8.0 | 22.5 | 0.10 | 3.45 | 1.37 | 87 | 1003.3 |
| 20260507121522 | 6 | 360 | 14.5 | 20.9 | 0.10 | 3.43 | 1.35 | 88 | 1003.2 |
| 20260507120021 | 5 | 320 | 12.9 | 20.9 | 0.10 | 3.40 | 1.32 | 89 | 1003.0 |
| 20260507114521 | 5 | 360 | 11.3 | 24.1 | 0.10 | 3.38 | 1.30 | 88 | 1002.9 |
| 20260507113027 | 5 | 360 | 8.0 | 17.7 | 0.10 | 3.35 | 1.27 | 89 | 1002.9 |
| 20260507111533 | 5 | 360 | 8.0 | 16.1 | 0.13 | 3.33 | 1.24 | 89 | 1003.1 |
| 20260507110019 | 5 | 269 | 4.8 | 11.3 | 0.13 | 3.30 | 1.22 | 89 | 1003.1 |
| 20260507104520 | 5 | 278 | 6.4 | 17.7 | 0.13 | 3.28 | 1.19 | 90 | 1003.1 |
| 20260507103016 | 5 | 360 | 8.0 | 16.1 | 0.10 | 3.23 | 1.14 | 90 | 1002.8 |
| 20260507101514 | 5 | 326 | 6.4 | 19.3 | 0.13 | 3.20 | 1.12 | 91 | 1002.3 |
| 20260507100018 | 5 | 360 | 6.4 | 17.7 | 0.13 | 3.17 | 1.09 | 90 | 1002.1 |
| 20260507094512 | 5 | 360 | 9.7 | 16.1 | 0.15 | 3.17 | 1.07 | 91 | 1002.1 |
| 20260507093019 | 5 | 360 | 9.7 | 17.7 | 0.13 | 3.12 | 1.02 | 90 | 1002.3 |
| 20260507091510 | 5 | 360 | 14.5 | 30.6 | 0.15 | 3.10 | 0.99 | 90 | 1002.1 |